WJA2240 CYYC-MMPR

Flight info

Callsign WJA2240
Flight time N/A
Altitude 37000
Route UBVAL Q927 SEKOM DCT DBS J9 FFU/N0450F390 DCT TBC DCT TUS J92 VYLLA UT12 CUL UJ7 MZT J141 OBRUG OBRUG1B
Aircraft B736/M-SDE2E3FGHIRWXY/LB1

Departure

Time N/A
Airport Calgary International Airport (CYYC)

Arrival

Time 2026-04-24 22:46
Airport Puerto Vallarta International Airport (MMPR)
Time Latitude Longitude Altitude Speed Heading
2026-04-24 18:54 47.44960 -113.00902 37110 ft 472 kts 171°
2026-04-24 18:55 47.35246 -112.98447 37112 ft 472 kts 171°
2026-04-24 18:56 47.28771 -112.96816 37109 ft 472 kts 171°
2026-04-24 18:56 47.22314 -112.95193 37106 ft 471 kts 171°
2026-04-24 18:57 47.15863 -112.93576 37105 ft 469 kts 171°
2026-04-24 18:57 47.09428 -112.91967 37102 ft 469 kts 171°
2026-04-24 18:58 47.03007 -112.90365 37109 ft 468 kts 171°
2026-04-24 18:58 46.96595 -112.88769 37101 ft 467 kts 171°
2026-04-24 18:59 46.90195 -112.87180 37108 ft 466 kts 171°
2026-04-24 18:59 46.83850 -112.85609 37106 ft 466 kts 171°
2026-04-24 19:00 46.77467 -112.84032 37108 ft 465 kts 171°
2026-04-24 19:00 46.71075 -112.82457 37102 ft 465 kts 171°
2026-04-24 19:01 46.64689 -112.80886 37112 ft 465 kts 171°
2026-04-24 19:01 46.58306 -112.79321 37109 ft 465 kts 171°
2026-04-24 19:02 46.52959 -112.78012 37096 ft 466 kts 171°
2026-04-24 19:02 46.45530 -112.76199 37113 ft 466 kts 171°
2026-04-24 19:03 46.39135 -112.74641 37116 ft 466 kts 171°
2026-04-24 19:03 46.32728 -112.73084 37109 ft 467 kts 171°
2026-04-24 19:04 46.26316 -112.71530 37105 ft 468 kts 172°
2026-04-24 19:04 46.19896 -112.69977 37078 ft 468 kts 172°
2026-04-24 19:05 46.13472 -112.68428 37058 ft 469 kts 172°
2026-04-24 19:05 46.07035 -112.66878 37030 ft 469 kts 172°
2026-04-24 19:06 46.00608 -112.65335 37024 ft 469 kts 172°
2026-04-24 19:06 45.94173 -112.63794 37013 ft 468 kts 172°
2026-04-24 19:07 45.87747 -112.62258 37021 ft 468 kts 172°
2026-04-24 19:07 45.82410 -112.60985 37027 ft 468 kts 172°
2026-04-24 19:08 45.74900 -112.59198 37043 ft 467 kts 172°
2026-04-24 19:08 45.68493 -112.57678 37057 ft 467 kts 172°
2026-04-24 19:09 45.62085 -112.56161 37047 ft 466 kts 172°
2026-04-24 19:09 45.55688 -112.54649 37044 ft 465 kts 172°
2026-04-24 19:10 45.49347 -112.53155 37043 ft 465 kts 173°
2026-04-24 19:10 45.42969 -112.51656 37017 ft 464 kts 173°
2026-04-24 19:11 45.36591 -112.50160 37003 ft 464 kts 173°
2026-04-24 19:11 45.30217 -112.48668 37001 ft 464 kts 173°
2026-04-24 19:12 45.23837 -112.47178 36997 ft 465 kts 173°
2026-04-24 19:12 45.17460 -112.45692 37003 ft 465 kts 173°
2026-04-24 19:13 45.12154 -112.44458 37012 ft 465 kts 173°
2026-04-24 19:13 45.04692 -112.42727 37023 ft 465 kts 173°
2026-04-24 19:14 44.98312 -112.41251 37040 ft 465 kts 173°
2026-04-24 19:14 44.91927 -112.39776 37046 ft 465 kts 173°
2026-04-24 19:15 44.85543 -112.38305 37043 ft 465 kts 173°
2026-04-24 19:15 44.79158 -112.36838 37041 ft 465 kts 173°
2026-04-24 19:16 44.69571 -112.34641 37038 ft 466 kts 174°
2026-04-24 19:16 44.63170 -112.33177 37020 ft 466 kts 174°
2026-04-24 19:17 44.56768 -112.31717 37016 ft 466 kts 174°
2026-04-24 19:17 44.50361 -112.30259 36998 ft 466 kts 174°
2026-04-24 19:18 44.45040 -112.29050 37006 ft 467 kts 174°
2026-04-24 19:18 44.38628 -112.27597 36998 ft 467 kts 174°
2026-04-24 19:19 44.32220 -112.26148 36990 ft 467 kts 174°
2026-04-24 19:19 44.25802 -112.24700 36985 ft 467 kts 174°
2026-04-24 19:20 44.19386 -112.23255 36974 ft 467 kts 174°
2026-04-24 19:20 44.12979 -112.21815 36974 ft 467 kts 175°
2026-04-24 19:21 44.06558 -112.20573 36970 ft 464 kts 180°
2026-04-24 19:21 44.00133 -112.20082 36966 ft 462 kts 182°
2026-04-24 19:22 43.93702 -112.19716 36973 ft 462 kts 182°
2026-04-24 19:22 43.87270 -112.19302 36972 ft 463 kts 181°
2026-04-24 19:23 43.80836 -112.18844 36975 ft 463 kts 181°
2026-04-24 19:23 43.74409 -112.18373 36985 ft 463 kts 182°
2026-04-24 19:24 43.67980 -112.17900 36983 ft 462 kts 182°
2026-04-24 19:24 43.61558 -112.17431 36987 ft 462 kts 182°
2026-04-24 19:25 43.55142 -112.16964 36985 ft 461 kts 182°
2026-04-24 19:25 43.48739 -112.16500 36989 ft 460 kts 182°
2026-04-24 19:26 43.42348 -112.16038 36986 ft 460 kts 182°
2026-04-24 19:26 43.35963 -112.15578 36989 ft 459 kts 182°
2026-04-24 19:27 43.29642 -112.15123 36983 ft 458 kts 182°
2026-04-24 19:27 43.23284 -112.14666 36988 ft 457 kts 183°
2026-04-24 19:28 43.16932 -112.14211 36993 ft 457 kts 183°
2026-04-24 19:28 43.10593 -112.13757 36995 ft 456 kts 183°
2026-04-24 19:29 43.01105 -112.13079 36984 ft 454 kts 183°
2026-04-24 19:30 42.94795 -112.12630 36991 ft 453 kts 184°
2026-04-24 19:30 42.88498 -112.12183 36989 ft 452 kts 184°
2026-04-24 19:31 42.82219 -112.11738 36984 ft 452 kts 184°
2026-04-24 19:31 42.75949 -112.11294 36971 ft 451 kts 184°
2026-04-24 19:32 42.69680 -112.10852 36956 ft 450 kts 184°
2026-04-24 19:32 42.63419 -112.10411 36958 ft 450 kts 184°
2026-04-24 19:33 42.57162 -112.09971 36954 ft 450 kts 184°
2026-04-24 19:33 42.50903 -112.09533 36943 ft 451 kts 184°
2026-04-24 19:34 42.44636 -112.09094 36935 ft 451 kts 184°
2026-04-24 19:34 42.38374 -112.08656 36924 ft 451 kts 185°
2026-04-24 19:35 42.32110 -112.08218 36906 ft 451 kts 185°
2026-04-24 19:35 42.25857 -112.07782 36904 ft 450 kts 185°
2026-04-24 19:36 42.19613 -112.07349 36904 ft 450 kts 185°
2026-04-24 19:36 42.13364 -112.06915 36876 ft 449 kts 185°
2026-04-24 19:37 42.07148 -112.06484 36895 ft 448 kts 185°
2026-04-24 19:37 42.00910 -112.06055 36898 ft 448 kts 185°
2026-04-24 19:38 41.94675 -112.05626 36910 ft 449 kts 185°
2026-04-24 19:38 41.88437 -112.05197 36919 ft 449 kts 185°
2026-04-24 19:39 41.82193 -112.04769 36930 ft 450 kts 185°
2026-04-24 19:39 41.75938 -112.04341 36914 ft 451 kts 185°
2026-04-24 19:40 41.69669 -112.03911 36919 ft 451 kts 185°
2026-04-24 19:40 41.63395 -112.03483 36925 ft 452 kts 185°
2026-04-24 19:41 41.57102 -112.03055 36925 ft 453 kts 185°
2026-04-24 19:41 41.50851 -112.02629 36923 ft 452 kts 185°
2026-04-24 19:42 41.44569 -112.02202 36930 ft 452 kts 185°
2026-04-24 19:42 41.38286 -112.01777 36912 ft 452 kts 185°
2026-04-24 19:43 41.31993 -112.01351 36916 ft 452 kts 185°
2026-04-24 19:43 41.25723 -112.00927 36926 ft 451 kts 185°
2026-04-24 19:44 41.19469 -112.00505 36926 ft 449 kts 185°
2026-04-24 19:44 41.13235 -112.00086 36936 ft 448 kts 185°
2026-04-24 19:45 41.07021 -111.99670 36939 ft 447 kts 185°
2026-04-24 19:45 41.00825 -111.99255 36929 ft 445 kts 185°
2026-04-24 19:46 40.94646 -111.98843 36900 ft 444 kts 185°
2026-04-24 19:46 40.88473 -111.98431 36916 ft 443 kts 185°
2026-04-24 19:47 40.82319 -111.98015 36922 ft 443 kts 185°
2026-04-24 19:47 40.76166 -111.97572 36935 ft 442 kts 185°
2026-04-24 19:48 40.70022 -111.97127 36920 ft 442 kts 185°
2026-04-24 19:48 40.60813 -111.96467 36892 ft 442 kts 185°
2026-04-24 19:49 40.48563 -111.95594 36862 ft 442 kts 185°
2026-04-24 19:50 40.36273 -111.94721 36876 ft 442 kts 185°
2026-04-24 19:51 40.27042 -111.94046 36886 ft 445 kts 183°
2026-04-24 19:52 40.17763 -111.92547 36888 ft 449 kts 180°
2026-04-24 19:52 40.11576 -111.91420 36876 ft 449 kts 180°
2026-04-24 19:53 40.05399 -111.90333 36864 ft 448 kts 181°
2026-04-24 19:54 39.96143 -111.88752 36857 ft 447 kts 181°
2026-04-24 19:54 39.89987 -111.87711 36853 ft 446 kts 181°
2026-04-24 19:55 39.85869 -111.87015 36850 ft 446 kts 181°
2026-04-24 19:55 39.77694 -111.85634 36854 ft 445 kts 181°
2026-04-24 19:56 39.71559 -111.84600 36853 ft 444 kts 181°
2026-04-24 19:56 39.65438 -111.83570 36860 ft 443 kts 181°
2026-04-24 19:57 39.59322 -111.82543 36857 ft 443 kts 181°
2026-04-24 19:57 39.53206 -111.81518 36859 ft 443 kts 181°
2026-04-24 19:58 39.47091 -111.80494 36852 ft 442 kts 181°
2026-04-24 19:58 39.40994 -111.79474 36864 ft 441 kts 181°
2026-04-24 19:59 39.34905 -111.78459 36855 ft 441 kts 181°
2026-04-24 19:59 39.28824 -111.77446 36855 ft 440 kts 181°
2026-04-24 20:00 39.22754 -111.76437 36859 ft 440 kts 181°
2026-04-24 20:00 39.16690 -111.75432 36863 ft 439 kts 181°
2026-04-24 20:01 39.10623 -111.74428 36862 ft 440 kts 181°
2026-04-24 20:01 39.04552 -111.73423 36855 ft 440 kts 181°
2026-04-24 20:02 38.99510 -111.72591 36855 ft 440 kts 181°
2026-04-24 20:02 38.92406 -111.71420 36859 ft 440 kts 181°
2026-04-24 20:03 38.86327 -111.70420 36861 ft 441 kts 181°
2026-04-24 20:03 38.80274 -111.69427 36848 ft 441 kts 181°
2026-04-24 20:04 38.75168 -111.68590 36854 ft 441 kts 181°
2026-04-24 20:04 38.69080 -111.67593 36847 ft 441 kts 181°
2026-04-24 20:05 38.62994 -111.66597 36844 ft 440 kts 181°
2026-04-24 20:05 38.56926 -111.65605 36836 ft 439 kts 181°
2026-04-24 20:06 38.50884 -111.64620 36846 ft 438 kts 181°
2026-04-24 20:06 38.44844 -111.63639 36845 ft 437 kts 181°
2026-04-24 20:07 38.39836 -111.62827 36845 ft 436 kts 181°
2026-04-24 20:07 38.32796 -111.61687 36840 ft 436 kts 181°
2026-04-24 20:08 38.26788 -111.60715 36843 ft 435 kts 181°
2026-04-24 20:08 38.20784 -111.59745 36836 ft 435 kts 181°
2026-04-24 20:09 38.14777 -111.58777 36843 ft 435 kts 182°
2026-04-24 20:09 38.08768 -111.57811 36830 ft 436 kts 182°
2026-04-24 20:10 38.02750 -111.56844 36829 ft 436 kts 182°
2026-04-24 20:10 37.96724 -111.55877 36828 ft 436 kts 182°
2026-04-24 20:11 37.90739 -111.54917 36817 ft 436 kts 182°
2026-04-24 20:11 37.84733 -111.53955 36808 ft 434 kts 182°
2026-04-24 20:12 37.78738 -111.52998 36820 ft 434 kts 182°
2026-04-24 20:12 37.72701 -111.52037 36814 ft 434 kts 182°
2026-04-24 20:13 37.66747 -111.51091 36808 ft 435 kts 182°
2026-04-24 20:13 37.60749 -111.50138 36812 ft 434 kts 182°
2026-04-24 20:14 37.54747 -111.49187 36812 ft 435 kts 182°
2026-04-24 20:14 37.48734 -111.48235 36797 ft 436 kts 182°
2026-04-24 20:15 37.42720 -111.47283 36797 ft 436 kts 182°
2026-04-24 20:15 37.36714 -111.46333 36796 ft 434 kts 182°
2026-04-24 20:16 37.30724 -111.45389 36807 ft 434 kts 183°
2026-04-24 20:16 37.24732 -111.44448 36810 ft 434 kts 183°
2026-04-24 20:17 37.18745 -111.43506 36828 ft 434 kts 183°
2026-04-24 20:17 37.09711 -111.42095 36867 ft 438 kts 183°
2026-04-24 20:18 37.03653 -111.41147 36885 ft 440 kts 183°
2026-04-24 20:18 36.97580 -111.40196 36900 ft 440 kts 183°
2026-04-24 20:19 36.91512 -111.39248 36901 ft 439 kts 183°
2026-04-24 20:19 36.85460 -111.38305 36898 ft 438 kts 183°
2026-04-24 20:20 36.79422 -111.37365 36876 ft 436 kts 183°
2026-04-24 20:20 36.73400 -111.36430 36856 ft 435 kts 183°
2026-04-24 20:21 36.67445 -111.35507 36836 ft 434 kts 184°
2026-04-24 20:21 36.61461 -111.34581 36807 ft 432 kts 184°
2026-04-24 20:22 36.55505 -111.33662 36807 ft 432 kts 184°
2026-04-24 20:22 36.49540 -111.32743 36809 ft 432 kts 184°
2026-04-24 20:23 36.43535 -111.31820 36804 ft 433 kts 184°
2026-04-24 20:23 36.37551 -111.30900 36810 ft 434 kts 184°
2026-04-24 20:24 36.31598 -111.29986 36806 ft 435 kts 184°
2026-04-24 20:24 36.25594 -111.29065 36811 ft 435 kts 184°
2026-04-24 20:25 36.19570 -111.28143 36809 ft 436 kts 184°
2026-04-24 20:25 36.13539 -111.27221 36813 ft 437 kts 184°
2026-04-24 20:26 36.07508 -111.26450 36812 ft 434 kts 186°
2026-04-24 20:26 36.01480 -111.25937 36808 ft 434 kts 187°
2026-04-24 20:27 35.95441 -111.25439 36866 ft 439 kts 187°
2026-04-24 20:27 35.92388 -111.25177 37104 ft 440 kts 186°
2026-04-24 20:27 35.89346 -111.24903 37467 ft 438 kts 186°
2026-04-24 20:28 35.86308 -111.24625 37745 ft 438 kts 186°
2026-04-24 20:28 35.83268 -111.24345 37946 ft 439 kts 186°
2026-04-24 20:28 35.80219 -111.24066 38149 ft 440 kts 186°
2026-04-24 20:28 35.77158 -111.23785 38359 ft 441 kts 186°
2026-04-24 20:29 35.75135 -111.23599 38521 ft 441 kts 186°
2026-04-24 20:29 35.71049 -111.23222 38775 ft 440 kts 186°
2026-04-24 20:29 35.64906 -111.22662 38796 ft 443 kts 186°
2026-04-24 20:30 35.58774 -111.22097 38797 ft 440 kts 186°
2026-04-24 20:30 35.52693 -111.21539 38801 ft 437 kts 186°
2026-04-24 20:31 35.46633 -111.20986 38797 ft 435 kts 186°
2026-04-24 20:31 35.40596 -111.20438 38811 ft 434 kts 186°
2026-04-24 20:32 35.34564 -111.19892 38816 ft 435 kts 186°
2026-04-24 20:32 35.28523 -111.19346 38826 ft 436 kts 186°
2026-04-24 20:33 35.22470 -111.18800 38833 ft 438 kts 186°
2026-04-24 20:33 35.16380 -111.18250 38842 ft 440 kts 186°
2026-04-24 20:34 35.10263 -111.17698 38847 ft 442 kts 186°
2026-04-24 20:34 35.04128 -111.17145 38848 ft 443 kts 186°
2026-04-24 20:35 34.98007 -111.16593 38858 ft 444 kts 186°
2026-04-24 20:35 34.91839 -111.16038 38865 ft 445 kts 186°
2026-04-24 20:36 34.85658 -111.15482 38862 ft 445 kts 186°
2026-04-24 20:36 34.79484 -111.14927 38871 ft 445 kts 186°
2026-04-24 20:37 34.73315 -111.14374 38881 ft 444 kts 186°
2026-04-24 20:37 34.67161 -111.13824 38882 ft 443 kts 186°
2026-04-24 20:38 34.61014 -111.13275 38880 ft 443 kts 186°
2026-04-24 20:38 34.54878 -111.12729 38896 ft 442 kts 186°
2026-04-24 20:39 34.48744 -111.12184 38916 ft 442 kts 186°
2026-04-24 20:39 34.42619 -111.11640 38944 ft 441 kts 186°
2026-04-24 20:40 34.36495 -111.11097 38963 ft 441 kts 186°
2026-04-24 20:40 34.30382 -111.10555 38969 ft 441 kts 186°
2026-04-24 20:41 34.24261 -111.10014 38963 ft 441 kts 186°
2026-04-24 20:41 34.18160 -111.09474 38959 ft 440 kts 187°
2026-04-24 20:42 34.12051 -111.08937 38952 ft 440 kts 187°
2026-04-24 20:42 34.05940 -111.08399 38923 ft 440 kts 187°
2026-04-24 20:43 33.99822 -111.07860 38879 ft 440 kts 187°
2026-04-24 20:43 33.93713 -111.07324 38869 ft 440 kts 187°
2026-04-24 20:44 33.87601 -111.06790 38856 ft 441 kts 187°
2026-04-24 20:44 33.81485 -111.06250 38864 ft 441 kts 187°
2026-04-24 20:45 33.75389 -111.05721 38851 ft 442 kts 187°
2026-04-24 20:45 33.69249 -111.05186 38854 ft 443 kts 187°
2026-04-24 20:46 33.63106 -111.04650 38859 ft 442 kts 187°
2026-04-24 20:46 33.56966 -111.04115 38849 ft 442 kts 187°
2026-04-24 20:47 33.50830 -111.03581 38856 ft 442 kts 187°
2026-04-24 20:47 33.44696 -111.03048 38852 ft 442 kts 187°
2026-04-24 20:48 33.38567 -111.02515 38841 ft 441 kts 187°
2026-04-24 20:48 33.33490 -111.02076 38841 ft 440 kts 187°
2026-04-24 20:49 33.26365 -111.01460 38840 ft 439 kts 187°
2026-04-24 20:49 33.20289 -111.00934 38836 ft 437 kts 187°
2026-04-24 20:50 33.15266 -111.00498 38854 ft 433 kts 187°
2026-04-24 20:50 33.09263 -110.99984 38867 ft 433 kts 187°
2026-04-24 20:51 33.03237 -110.99471 38862 ft 435 kts 187°
2026-04-24 20:51 32.97199 -110.98952 38874 ft 435 kts 187°
2026-04-24 20:52 32.91162 -110.98436 38878 ft 436 kts 187°
2026-04-24 20:52 32.85098 -110.97917 38883 ft 437 kts 187°
2026-04-24 20:53 32.79026 -110.97398 38893 ft 438 kts 187°
2026-04-24 20:53 32.72937 -110.96878 38900 ft 439 kts 187°
2026-04-24 20:54 32.66832 -110.96356 38902 ft 440 kts 187°
2026-04-24 20:54 32.60725 -110.95835 38903 ft 440 kts 187°
2026-04-24 20:55 32.54629 -110.95316 38915 ft 439 kts 187°
2026-04-24 20:55 32.48540 -110.94798 38913 ft 438 kts 187°
2026-04-24 20:56 32.42457 -110.94282 38915 ft 438 kts 187°
2026-04-24 20:56 32.36385 -110.93769 38942 ft 438 kts 187°
2026-04-24 20:57 32.30307 -110.93254 38935 ft 438 kts 188°
2026-04-24 20:57 32.24237 -110.92742 38939 ft 437 kts 188°
2026-04-24 20:58 32.18173 -110.92230 38942 ft 437 kts 188°
2026-04-24 20:58 32.12149 -110.91723 38948 ft 436 kts 188°
2026-04-24 20:59 32.06154 -110.91563 38955 ft 426 kts 194°
2026-04-24 20:59 32.00235 -110.91869 38931 ft 425 kts 194°
2026-04-24 21:00 31.94322 -110.92185 38894 ft 425 kts 194°
2026-04-24 21:00 31.88411 -110.92474 38879 ft 426 kts 194°
2026-04-24 21:01 31.82489 -110.92748 38857 ft 426 kts 194°
2026-04-24 21:01 31.76567 -110.93020 38834 ft 426 kts 194°
2026-04-24 21:02 31.70640 -110.93292 38868 ft 426 kts 194°
2026-04-24 21:02 31.64699 -110.93565 38898 ft 427 kts 194°
2026-04-24 21:03 31.58768 -110.93836 38933 ft 427 kts 194°
2026-04-24 21:03 31.52829 -110.94108 38965 ft 427 kts 194°
2026-04-24 21:04 31.46899 -110.94379 38986 ft 426 kts 194°
2026-04-24 21:04 31.40969 -110.94649 38991 ft 426 kts 194°
2026-04-24 21:05 31.35003 -110.94588 38983 ft 442 kts 184°
2026-04-24 21:05 31.31954 -110.93817 38982 ft 455 kts 175°
2026-04-24 21:05 31.28949 -110.92488 38957 ft 471 kts 165°
2026-04-24 21:06 31.23153 -110.88939 38932 ft 475 kts 162°
2026-04-24 21:06 31.17363 -110.85237 38905 ft 474 kts 163°
2026-04-24 21:07 31.11562 -110.81596 38883 ft 474 kts 163°
2026-04-24 21:07 31.05728 -110.77995 38855 ft 475 kts 163°
2026-04-24 21:08 30.99885 -110.74406 38843 ft 473 kts 163°
2026-04-24 21:08 30.94062 -110.70836 38839 ft 471 kts 163°
2026-04-24 21:09 30.88257 -110.67283 38845 ft 472 kts 164°
2026-04-24 21:09 30.82460 -110.63738 38846 ft 470 kts 164°
2026-04-24 21:10 30.76661 -110.60198 38854 ft 471 kts 164°
2026-04-24 21:10 30.70836 -110.56649 38839 ft 473 kts 164°
2026-04-24 21:11 30.65004 -110.53095 38869 ft 474 kts 164°
2026-04-24 21:11 30.59155 -110.49537 38850 ft 475 kts 164°
2026-04-24 21:12 30.54288 -110.46580 38867 ft 475 kts 164°
2026-04-24 21:12 30.47436 -110.42421 38860 ft 475 kts 164°
2026-04-24 21:13 30.41577 -110.38871 38849 ft 475 kts 164°
2026-04-24 21:13 30.35755 -110.35350 38874 ft 476 kts 164°
2026-04-24 21:14 30.29891 -110.31805 38864 ft 475 kts 164°
2026-04-24 21:14 30.24037 -110.28270 38862 ft 474 kts 164°
2026-04-24 21:15 30.18206 -110.24756 38866 ft 471 kts 164°
2026-04-24 21:15 30.12403 -110.21264 38878 ft 470 kts 164°
2026-04-24 21:16 30.06601 -110.17779 38865 ft 469 kts 164°
2026-04-24 21:16 30.00811 -110.14304 38878 ft 469 kts 164°
2026-04-24 21:17 29.95025 -110.10835 38871 ft 468 kts 164°
2026-04-24 21:17 29.90219 -110.07959 38873 ft 469 kts 164°
2026-04-24 21:18 29.83452 -110.03913 38858 ft 469 kts 164°
2026-04-24 21:18 29.77659 -110.00455 38855 ft 469 kts 164°
2026-04-24 21:19 29.71863 -109.96999 38862 ft 470 kts 164°
2026-04-24 21:19 29.66054 -109.93542 38856 ft 469 kts 164°
2026-04-24 21:20 29.57371 -109.88385 38853 ft 467 kts 164°
2026-04-24 21:21 29.51601 -109.84964 38857 ft 467 kts 164°
2026-04-24 21:21 29.45844 -109.81553 38848 ft 464 kts 164°
2026-04-24 21:22 29.40097 -109.78156 38846 ft 466 kts 164°
2026-04-24 21:22 29.34329 -109.74750 38853 ft 466 kts 164°
2026-04-24 21:23 29.28548 -109.71340 38845 ft 468 kts 164°
2026-04-24 21:23 29.22777 -109.67936 38846 ft 467 kts 164°
2026-04-24 21:24 29.16996 -109.64533 38849 ft 467 kts 164°
2026-04-24 21:24 29.11242 -109.61152 38857 ft 468 kts 164°
2026-04-24 21:25 29.05445 -109.57749 38794 ft 467 kts 164°
2026-04-24 21:25 28.99702 -109.54371 38828 ft 464 kts 165°
2026-04-24 21:26 28.93952 -109.51013 38842 ft 466 kts 165°
2026-04-24 21:26 28.88175 -109.47637 38852 ft 467 kts 165°
2026-04-24 21:27 28.82387 -109.44254 38841 ft 467 kts 164°
2026-04-24 21:27 28.76599 -109.40879 38862 ft 469 kts 165°
2026-04-24 21:28 28.70794 -109.37495 38857 ft 469 kts 165°
2026-04-24 21:28 28.64976 -109.34112 38863 ft 470 kts 165°
2026-04-24 21:29 28.59151 -109.30724 38873 ft 471 kts 165°
2026-04-24 21:29 28.53320 -109.27338 38883 ft 470 kts 165°
2026-04-24 21:30 28.47492 -109.23959 38868 ft 470 kts 165°
2026-04-24 21:30 28.41723 -109.20617 38888 ft 469 kts 165°
2026-04-24 21:31 28.35908 -109.17253 38893 ft 468 kts 165°
2026-04-24 21:31 28.30104 -109.13901 38900 ft 468 kts 165°
2026-04-24 21:32 28.24287 -109.10547 38902 ft 469 kts 165°
2026-04-24 21:32 28.18462 -109.07197 38896 ft 470 kts 165°
2026-04-24 21:33 28.12635 -109.03844 38881 ft 468 kts 165°
2026-04-24 21:33 28.06851 -109.00516 38890 ft 466 kts 165°
2026-04-24 21:34 28.01080 -108.97207 38910 ft 465 kts 165°
2026-04-24 21:34 27.95312 -108.93905 38908 ft 464 kts 165°
2026-04-24 21:35 27.89539 -108.90601 38897 ft 463 kts 165°
2026-04-24 21:35 27.83768 -108.87310 38915 ft 467 kts 165°
2026-04-24 21:36 27.77968 -108.83996 38893 ft 467 kts 165°
2026-04-24 21:36 27.72166 -108.80682 38889 ft 467 kts 165°
2026-04-24 21:37 27.66366 -108.77377 38889 ft 467 kts 165°
2026-04-24 21:37 27.60561 -108.74074 38864 ft 467 kts 165°
2026-04-24 21:38 27.54772 -108.70779 38881 ft 465 kts 165°
2026-04-24 21:38 27.49969 -108.68054 38886 ft 465 kts 165°
2026-04-24 21:39 27.44189 -108.64778 38890 ft 465 kts 165°
2026-04-24 21:39 27.38418 -108.61495 38762 ft 464 kts 165°
2026-04-24 21:40 27.31798 -108.57739 38852 ft 458 kts 166°
2026-04-24 21:40 27.26972 -108.55039 38895 ft 467 kts 165°
2026-04-24 21:41 27.21155 -108.51767 38903 ft 467 kts 165°
2026-04-24 21:41 27.15356 -108.48491 38826 ft 464 kts 165°
2026-04-24 21:42 27.09598 -108.45249 38898 ft 464 kts 165°
2026-04-24 21:42 27.03802 -108.41990 38901 ft 466 kts 165°
2026-04-24 21:43 26.97986 -108.38723 38901 ft 469 kts 165°
2026-04-24 21:43 26.92146 -108.35446 38886 ft 470 kts 165°
2026-04-24 21:44 26.86306 -108.32169 38889 ft 468 kts 165°
2026-04-24 21:44 26.80527 -108.28932 38882 ft 467 kts 165°
2026-04-24 21:45 26.74717 -108.25683 38869 ft 466 kts 165°
2026-04-24 21:45 26.68924 -108.22449 38873 ft 465 kts 165°
2026-04-24 21:46 26.63137 -108.19219 38878 ft 465 kts 165°
2026-04-24 21:46 26.57323 -108.16116 38883 ft 456 kts 170°
2026-04-24 21:47 26.51382 -108.13792 38890 ft 450 kts 173°
2026-04-24 21:47 26.45432 -108.11607 38894 ft 451 kts 173°
2026-04-24 21:48 26.39482 -108.09373 38890 ft 451 kts 172°
2026-04-24 21:48 26.33527 -108.07100 38904 ft 455 kts 172°
2026-04-24 21:49 26.27501 -108.04792 38896 ft 460 kts 172°
2026-04-24 21:49 26.21438 -108.02466 38879 ft 461 kts 172°
2026-04-24 21:50 26.15373 -108.00142 38874 ft 460 kts 172°
2026-04-24 21:50 26.09382 -107.97846 38869 ft 451 kts 172°
2026-04-24 21:51 26.03451 -107.95586 38869 ft 450 kts 172°
2026-04-24 21:51 25.97517 -107.93329 38870 ft 451 kts 171°
2026-04-24 21:52 25.91585 -107.91067 38869 ft 449 kts 172°
2026-04-24 21:52 25.85669 -107.88819 38873 ft 450 kts 172°
2026-04-24 21:53 25.79774 -107.86583 38860 ft 451 kts 171°
2026-04-24 21:53 25.73827 -107.84327 38863 ft 452 kts 171°
2026-04-24 21:54 25.67868 -107.82068 38859 ft 453 kts 171°
2026-04-24 21:54 25.61890 -107.79804 38862 ft 454 kts 171°
2026-04-24 21:55 25.55902 -107.77538 38868 ft 455 kts 171°
2026-04-24 21:55 25.49911 -107.75274 38857 ft 455 kts 171°
2026-04-24 21:56 25.43913 -107.73009 38859 ft 455 kts 171°
2026-04-24 21:56 25.37908 -107.70745 38852 ft 456 kts 171°
2026-04-24 21:57 25.31912 -107.68485 38852 ft 455 kts 171°
2026-04-24 21:57 25.25916 -107.66228 38860 ft 455 kts 171°
2026-04-24 21:58 25.19930 -107.63978 38853 ft 455 kts 170°
2026-04-24 21:58 25.13935 -107.61727 38852 ft 455 kts 170°
2026-04-24 21:59 25.07933 -107.59479 38852 ft 455 kts 170°
2026-04-24 21:59 25.01948 -107.57238 38866 ft 454 kts 170°
2026-04-24 22:00 24.95960 -107.54999 38881 ft 454 kts 170°
2026-04-24 22:00 24.89969 -107.52763 38898 ft 455 kts 170°
2026-04-24 22:01 24.83961 -107.50520 38905 ft 456 kts 170°
2026-04-24 22:01 24.77946 -107.48253 38904 ft 460 kts 167°
2026-04-24 22:02 24.72266 -107.44753 38913 ft 475 kts 153°
2026-04-24 22:02 24.66868 -107.40518 38896 ft 478 kts 152°
2026-04-24 22:03 24.61493 -107.36316 38895 ft 477 kts 152°
2026-04-24 22:03 24.56006 -107.32111 38877 ft 478 kts 152°
2026-04-24 22:04 24.50580 -107.27981 38875 ft 478 kts 152°
2026-04-24 22:04 24.45117 -107.23822 38867 ft 478 kts 152°
2026-04-24 22:05 24.39657 -107.19671 38863 ft 477 kts 152°
2026-04-24 22:05 24.34202 -107.15538 38874 ft 476 kts 152°
2026-04-24 22:06 24.28749 -107.11412 38866 ft 476 kts 152°
2026-04-24 22:06 24.23296 -107.07287 38874 ft 476 kts 152°
2026-04-24 22:07 24.17853 -107.03174 38871 ft 475 kts 152°
2026-04-24 22:07 24.12412 -106.99066 38878 ft 475 kts 152°
2026-04-24 22:08 24.06979 -106.94969 38877 ft 474 kts 152°
2026-04-24 22:08 24.01546 -106.90874 38878 ft 474 kts 152°
2026-04-24 22:09 23.96117 -106.86789 38875 ft 473 kts 152°
2026-04-24 22:09 23.90695 -106.82718 38879 ft 473 kts 152°
2026-04-24 22:10 23.85270 -106.78650 38878 ft 473 kts 152°
2026-04-24 22:10 23.79850 -106.74588 38884 ft 472 kts 152°
2026-04-24 22:11 23.74431 -106.70530 38881 ft 472 kts 151°
2026-04-24 22:11 23.69013 -106.66476 38884 ft 472 kts 151°
2026-04-24 22:12 23.63593 -106.62426 38877 ft 472 kts 151°
2026-04-24 22:12 23.58171 -106.58377 38881 ft 472 kts 151°
2026-04-24 22:13 23.52755 -106.54339 38886 ft 472 kts 151°
2026-04-24 22:13 23.47338 -106.50304 38880 ft 472 kts 151°
2026-04-24 22:14 23.41924 -106.46274 38882 ft 471 kts 151°
2026-04-24 22:14 23.36513 -106.42249 38883 ft 471 kts 151°
2026-04-24 22:15 23.31134 -106.38253 38890 ft 471 kts 151°
2026-04-24 22:15 23.25717 -106.34231 38891 ft 472 kts 150°
2026-04-24 22:16 23.20293 -106.30208 38884 ft 472 kts 150°
2026-04-24 22:16 23.14763 -106.26441 38879 ft 465 kts 161°
2026-04-24 22:17 23.08796 -106.23869 38883 ft 460 kts 165°
2026-04-24 22:17 23.02801 -106.21416 38886 ft 460 kts 165°
2026-04-24 22:18 22.96819 -106.18915 38879 ft 461 kts 164°
2026-04-24 22:18 22.90854 -106.16386 38878 ft 460 kts 164°
2026-04-24 22:19 22.84887 -106.13854 38880 ft 460 kts 164°
2026-04-24 22:19 22.78923 -106.11328 38875 ft 460 kts 164°
2026-04-24 22:20 22.72959 -106.08805 38874 ft 460 kts 164°
2026-04-24 22:20 22.66995 -106.06286 38872 ft 460 kts 164°
2026-04-24 22:20 22.63998 -106.05022 38517 ft 466 kts 164°
2026-04-24 22:21 22.60967 -106.03745 37891 ft 466 kts 163°
2026-04-24 22:21 22.57954 -106.02472 37251 ft 464 kts 163°
2026-04-24 22:21 22.54948 -106.01202 36578 ft 463 kts 163°
2026-04-24 22:21 22.51954 -105.99938 35915 ft 462 kts 163°
2026-04-24 22:22 22.48953 -105.98673 35231 ft 462 kts 163°
2026-04-24 22:22 22.45975 -105.97417 34749 ft 457 kts 163°
2026-04-24 22:22 22.43018 -105.96171 34242 ft 454 kts 163°
2026-04-24 22:22 22.40092 -105.94938 33723 ft 450 kts 163°
2026-04-24 22:23 22.37186 -105.93715 33171 ft 447 kts 163°
2026-04-24 22:23 22.34302 -105.92502 32659 ft 442 kts 163°
2026-04-24 22:23 22.31450 -105.91303 32168 ft 438 kts 163°
2026-04-24 22:23 22.28618 -105.90113 31689 ft 435 kts 163°
2026-04-24 22:24 22.25847 -105.88950 31222 ft 431 kts 163°
2026-04-24 22:24 22.23062 -105.87781 30758 ft 428 kts 163°
2026-04-24 22:24 22.20297 -105.86621 30304 ft 425 kts 162°
2026-04-24 22:24 22.17547 -105.85468 29819 ft 423 kts 162°
2026-04-24 22:25 22.14815 -105.84323 29295 ft 420 kts 162°
2026-04-24 22:25 22.12103 -105.83187 28799 ft 416 kts 162°
2026-04-24 22:25 22.09418 -105.82061 28304 ft 412 kts 162°
2026-04-24 22:25 22.06758 -105.80948 27848 ft 408 kts 162°
2026-04-24 22:26 22.04119 -105.79842 27389 ft 405 kts 162°
2026-04-24 22:26 22.01505 -105.78749 26938 ft 402 kts 162°
2026-04-24 22:26 21.98911 -105.77664 26480 ft 398 kts 162°
2026-04-24 22:26 21.97168 -105.76936 26192 ft 396 kts 162°
2026-04-24 22:27 21.94640 -105.75879 25762 ft 394 kts 162°
2026-04-24 22:27 21.92094 -105.74816 25324 ft 391 kts 162°
2026-04-24 22:27 21.89561 -105.73758 24881 ft 389 kts 161°
2026-04-24 22:27 21.87043 -105.72706 24436 ft 388 kts 161°
2026-04-24 22:28 21.84529 -105.71657 23994 ft 386 kts 161°
2026-04-24 22:28 21.82026 -105.70613 23554 ft 385 kts 161°
2026-04-24 22:28 21.79536 -105.69575 23060 ft 383 kts 161°
2026-04-24 22:28 21.77102 -105.68413 22573 ft 383 kts 153°
2026-04-24 22:29 21.72581 -105.65457 21642 ft 379 kts 149°
2026-04-24 22:29 21.70364 -105.63928 21184 ft 376 kts 149°
2026-04-24 22:29 21.68164 -105.62424 20735 ft 374 kts 149°
2026-04-24 22:30 21.65964 -105.60939 20286 ft 372 kts 149°
2026-04-24 22:30 21.63770 -105.59473 19839 ft 370 kts 149°
2026-04-24 22:30 21.61581 -105.58022 19378 ft 369 kts 149°
2026-04-24 22:30 21.59402 -105.56584 18932 ft 368 kts 149°
2026-04-24 22:31 21.57222 -105.55148 18527 ft 365 kts 149°
2026-04-24 22:31 21.55073 -105.53735 18183 ft 357 kts 149°
2026-04-24 22:31 21.52976 -105.52356 17587 ft 352 kts 149°
2026-04-24 22:31 21.50887 -105.50982 16909 ft 351 kts 149°
2026-04-24 22:32 21.48812 -105.49619 16297 ft 348 kts 149°
2026-04-24 22:32 21.46762 -105.48273 15724 ft 344 kts 149°
2026-04-24 22:32 21.44726 -105.46936 15146 ft 341 kts 149°
2026-04-24 22:32 21.42721 -105.45620 14695 ft 335 kts 149°
2026-04-24 22:33 21.40758 -105.44331 14269 ft 328 kts 149°
2026-04-24 22:33 21.38833 -105.43068 13869 ft 321 kts 149°
2026-04-24 22:33 21.36944 -105.41829 13454 ft 315 kts 149°
2026-04-24 22:33 21.35071 -105.40600 13071 ft 318 kts 149°
2026-04-24 22:34 21.33161 -105.39350 12679 ft 324 kts 149°
2026-04-24 22:34 21.31223 -105.38080 12277 ft 329 kts 149°
2026-04-24 22:34 21.29275 -105.36805 11756 ft 331 kts 149°
2026-04-24 22:34 21.27304 -105.35515 11289 ft 331 kts 149°
2026-04-24 22:35 21.25347 -105.34234 10878 ft 329 kts 149°
2026-04-24 22:35 21.23397 -105.32958 10484 ft 327 kts 149°
2026-04-24 22:35 21.21467 -105.31695 10250 ft 320 kts 150°
2026-04-24 22:35 21.19598 -105.30472 10086 ft 310 kts 150°
2026-04-24 22:36 21.17783 -105.29286 9935 ft 301 kts 150°
2026-04-24 22:36 21.16014 -105.28129 9535 ft 301 kts 150°
2026-04-24 22:36 21.14527 -105.27158 9268 ft 299 kts 150°
2026-04-24 22:36 21.12758 -105.26003 8906 ft 298 kts 150°
2026-04-24 22:37 21.10994 -105.24851 8575 ft 296 kts 150°
2026-04-24 22:37 21.09242 -105.23707 8252 ft 294 kts 150°
2026-04-24 22:37 21.07504 -105.22573 7942 ft 292 kts 150°
2026-04-24 22:37 21.05771 -105.21442 7628 ft 291 kts 150°
2026-04-24 22:38 21.04043 -105.20315 7308 ft 291 kts 150°
2026-04-24 22:38 21.02318 -105.19190 6987 ft 290 kts 150°
2026-04-24 22:38 21.00596 -105.18066 6669 ft 290 kts 150°
2026-04-24 22:38 20.98877 -105.16944 6346 ft 289 kts 150°
2026-04-24 22:39 20.97165 -105.15828 6002 ft 288 kts 150°
2026-04-24 22:39 20.95464 -105.14721 5775 ft 283 kts 150°
2026-04-24 22:39 20.93811 -105.13645 5629 ft 273 kts 150°
2026-04-24 22:39 20.92230 -105.12615 5485 ft 261 kts 149°
2026-04-24 22:40 20.90768 -105.11481 5185 ft 260 kts 142°
2026-04-24 22:40 20.89380 -105.10240 4905 ft 260 kts 141°
2026-04-24 22:40 20.88007 -105.09005 4602 ft 256 kts 141°
2026-04-24 22:40 20.86614 -105.07863 4274 ft 250 kts 154°
2026-04-24 22:41 20.84972 -105.07479 4007 ft 239 kts 186°
2026-04-24 22:41 20.83443 -105.07981 3760 ft 224 kts 211°
2026-04-24 22:41 20.82279 -105.09003 3511 ft 211 kts 227°
2026-04-24 22:41 20.81315 -105.10136 3273 ft 201 kts 229°
2026-04-24 22:42 20.80397 -105.11212 3070 ft 189 kts 229°
2026-04-24 22:42 20.79510 -105.12236 3013 ft 188 kts 228°
2026-04-24 22:42 20.78624 -105.13251 2889 ft 186 kts 228°
2026-04-24 22:42 20.77755 -105.14246 2662 ft 180 kts 228°
2026-04-24 22:43 20.76913 -105.15211 2413 ft 174 kts 228°
2026-04-24 22:43 20.76116 -105.16122 2206 ft 161 kts 228°
2026-04-24 22:43 20.75372 -105.16974 1982 ft 150 kts 228°
2026-04-24 22:43 20.74683 -105.17765 1775 ft 142 kts 228°
2026-04-24 22:44 20.74044 -105.18498 1609 ft 135 kts 227°
2026-04-24 22:44 20.73417 -105.19213 1425 ft 129 kts 227°
2026-04-24 22:44 20.72803 -105.19920 1204 ft 128 kts 227°
2026-04-24 22:44 20.72205 -105.20605 1045 ft 127 kts 228°
2026-04-24 22:45 20.71600 -105.21299 886 ft 128 kts 229°
2026-04-24 22:45 20.70995 -105.21995 688 ft 127 kts 227°
2026-04-24 22:45 20.70405 -105.22668 526 ft 122 kts 227°
2026-04-24 22:45 20.69828 -105.23331 389 ft 122 kts 226°
2026-04-24 22:46 20.69259 -105.23984 171 ft 115 kts 227°
2026-04-24 22:46 20.68690 -105.24637 37 ft 119 kts 226°
2026-04-24 22:46 20.68193 -105.25205 28 ft 86 kts 227°
2026-04-24 22:46 20.67884 -105.25560 27 ft 44 kts 227°
2026-04-24 22:47 20.67697 -105.25774 28 ft 37 kts 227°
2026-04-24 22:47 20.67519 -105.25923 27 ft 23 kts 202°
2026-04-24 22:47 20.67413 -105.25962 30 ft 12 kts 187°
2026-04-24 22:47 20.67345 -105.25926 26 ft 4 kts 118°
2026-04-24 22:48 20.67358 -105.25903 29 ft 6 kts 45°
2026-04-24 22:48 20.67424 -105.25827 28 ft 20 kts 47°
2026-04-24 22:48 20.67525 -105.25712 28 ft 23 kts 46°
2026-04-24 22:48 20.67647 -105.25571 26 ft 29 kts 47°
2026-04-24 22:49 20.67793 -105.25404 27 ft 31 kts 47°
2026-04-24 22:49 20.67906 -105.25278 27 ft 13 kts 46°
2026-04-24 22:49 20.67892 -105.25200 27 ft 13 kts 138°
2026-04-24 22:49 20.67822 -105.25132 27 ft 14 kts 137°
2026-04-24 22:50 20.67848 -105.25065 27 ft 11 kts 41°
2026-04-24 22:50 20.67902 -105.25007 27 ft 13 kts 46°
2026-04-24 22:50 20.67955 -105.24919 27 ft 15 kts 66°
2026-04-24 22:50 20.68020 -105.24840 27 ft 14 kts 44°
2026-04-24 22:51 20.68090 -105.24766 28 ft 15 kts 44°
2026-04-24 22:51 20.68159 -105.24666 28 ft 17 kts 85°
2026-04-24 22:51 20.68083 -105.24574 28 ft 16 kts 140°
2026-04-24 22:51 20.68017 -105.24561 28 ft 7 kts 219°
2026-04-24 22:52 20.67994 -105.24587 28 ft 3 kts 227°
2026-04-24 22:52 20.67992 -105.24590 28 ft 0 kts 227°